| time (UTC) | temp F | wind direction | speed MPH | gust MPH | rain 1hr in | rain 24hr in | rain mn in | humidity % | barometer mb |
| 20260503202805 | 56 | 160 | 6.0 | 8.0 | 0.00 | 0.00 | 0.00 | 89 | 1036.4 |
| 20260503200805 | 56 | 154 | 4.0 | 7.0 | 0.00 | 0.00 | 0.00 | 90 | 1036.4 |
| 20260503200304 | 56 | 158 | 5.0 | 8.0 | 0.00 | 0.00 | 0.00 | 90 | 1036.3 |
| 20260503195804 | 56 | 162 | 4.0 | 6.0 | 0.00 | 0.00 | 0.00 | 90 | 1036.3 |
| 20260503194305 | 56 | 178 | 6.0 | 8.0 | 0.00 | 0.00 | 0.00 | 89 | 1036.1 |
| 20260503192804 | 56 | 172 | 6.0 | 9.0 | 0.00 | 0.00 | 0.00 | 90 | 1036.0 |
| 20260503191305 | 55 | 170 | 6.0 | 8.0 | 0.00 | 0.00 | 0.00 | 89 | 1035.9 |
| 20260503185305 | 55 | 184 | 5.0 | 8.0 | 0.00 | 0.00 | 0.00 | 88 | 1035.7 |
| 20260503184804 | 55 | 172 | 6.0 | 7.0 | 0.00 | 0.00 | 0.00 | 89 | 1035.6 |
| 20260503182804 | 55 | 167 | 5.0 | 6.0 | 0.00 | 0.00 | 0.00 | 89 | 1035.4 |
| 20260503182305 | 55 | 167 | 3.0 | 7.0 | 0.00 | 0.00 | 0.00 | 89 | 1035.3 |
| 20260503180805 | 55 | 167 | 5.0 | 8.0 | 0.00 | 0.00 | 0.00 | 89 | 1035.3 |
| 20260503175804 | 55 | 161 | 5.0 | 7.0 | 0.00 | 0.00 | 0.00 | 89 | 1035.3 |
| 20260503175305 | 55 | 161 | 6.0 | 7.0 | 0.00 | 0.00 | 0.00 | 89 | 1035.3 |
| 20260503173304 | 55 | 156 | 5.0 | 7.0 | 0.00 | 0.00 | 0.00 | 89 | 1035.2 |
| 20260503172305 | 55 | 156 | 5.0 | 7.0 | 0.00 | 0.00 | 0.00 | 90 | 1035.1 |
| 20260503171804 | 55 | 155 | 5.0 | 7.0 | 0.00 | 0.00 | 0.00 | 90 | 1035.1 |
| 20260503171304 | 55 | 154 | 4.0 | 6.0 | 0.00 | 0.00 | 0.00 | 90 | 1035.1 |
| 20260503170304 | 55 | 155 | 5.0 | 7.0 | 0.00 | 0.00 | 0.00 | 90 | 1035.0 |
| 20260503150805 | 56 | 181 | 3.0 | 3.0 | 0.00 | 0.00 | 0.00 | 88 | 1035.4 |
| 20260503130804 | 56 | 154 | 5.0 | 7.0 | 0.00 | 0.00 | 0.00 | 89 | 1036.1 |
| 20260503130304 | 56 | 153 | 5.0 | 6.0 | 0.00 | 0.00 | 0.00 | 89 | 1036.1 |
| 20260503110805 | 56 | 142 | 2.0 | 3.0 | 0.00 | 0.00 | 0.00 | 88 | 1036.1 |
| 20260503110304 | 56 | 142 | 3.0 | 5.0 | 0.00 | 0.00 | 0.00 | 88 | 1036.0 |
| 20260503080304 | 59 | 161 | 3.0 | 5.0 | 0.00 | 0.00 | 0.00 | 81 | 1035.2 |
| 20260503072806 | 58 | 57 | 0.0 | 0.0 | 0.00 | 0.00 | 0.00 | 78 | 1034.8 |
| 20260503070805 | 59 | 35 | 4.0 | 6.0 | 0.00 | 0.00 | 0.00 | 79 | 1034.6 |
| 20260503070304 | 59 | 33 | 3.0 | 5.0 | 0.00 | 0.00 | 0.00 | 79 | 1034.6 |
| 20260503052804 | 60 | 58 | 3.0 | 5.0 | 0.00 | 0.00 | 0.00 | 75 | 1034.3 |
| 20260503051805 | 60 | 58 | 5.0 | 7.0 | 0.00 | 0.00 | 0.00 | 75 | 1034.2 |
| 20260503050805 | 60 | 58 | 6.0 | 8.0 | 0.00 | 0.00 | 0.00 | 75 | 1034.2 |
| 20260503045305 | 61 | 58 | 4.0 | 7.0 | 0.00 | 0.00 | 0.00 | 75 | 1034.3 |
| 20260503044305 | 61 | 59 | 5.0 | 7.0 | 0.00 | 0.00 | 0.00 | 74 | 1034.3 |
| 20260503043805 | 62 | 59 | 4.0 | 7.0 | 0.00 | 0.00 | 0.00 | 74 | 1034.3 |
| 20260503043305 | 62 | 59 | 5.0 | 7.0 | 0.00 | 0.00 | 0.00 | 74 | 1034.3 |
| 20260503041805 | 62 | 81 | 2.0 | 6.0 | 0.00 | 0.00 | 0.00 | 73 | 1034.3 |
| 20260503041305 | 62 | 81 | 3.0 | 8.0 | 0.00 | 0.00 | 0.00 | 74 | 1034.3 |
| 20260503040304 | 62 | 83 | 5.0 | 8.0 | 0.00 | 0.00 | 0.00 | 73 | 1034.3 |
| 20260503035305 | 62 | 64 | 6.0 | 8.0 | 0.00 | 0.00 | 0.00 | 71 | 1034.3 |
| 20260503034804 | 62 | 75 | 4.0 | 8.0 | 0.00 | 0.00 | 0.00 | 73 | 1034.3 |
| 20260503033305 | 62 | 56 | 4.0 | 7.0 | 0.00 | 0.00 | 0.00 | 73 | 1034.3 |
| 20260503032804 | 62 | 51 | 5.0 | 8.0 | 0.00 | 0.00 | 0.00 | 73 | 1034.3 |
| 20260503031804 | 63 | 65 | 4.0 | 10.0 | 0.00 | 0.00 | 0.00 | 71 | 1034.3 |
| 20260503031305 | 63 | 59 | 8.0 | 12.0 | 0.00 | 0.00 | 0.00 | 71 | 1034.3 |
| 20260503030805 | 63 | 55 | 5.0 | 7.0 | 0.00 | 0.00 | 0.00 | 73 | 1034.2 |
| 20260503030305 | 63 | 57 | 5.0 | 10.0 | 0.00 | 0.00 | 0.00 | 73 | 1034.3 |
| 20260503024805 | 64 | 61 | 6.0 | 10.0 | 0.00 | 0.00 | 0.00 | 72 | 1034.2 |
| 20260503024305 | 64 | 64 | 5.0 | 10.0 | 0.00 | 0.00 | 0.00 | 72 | 1034.2 |
| 20260503023805 | 63 | 61 | 3.0 | 9.0 | 0.00 | 0.00 | 0.00 | 73 | 1034.3 |
| 20260503023305 | 64 | 74 | 7.0 | 10.0 | 0.00 | 0.00 | 0.00 | 73 | 1034.3 |
| 20260503022805 | 63 | 76 | 5.0 | 8.0 | 0.00 | 0.00 | 0.00 | 72 | 1034.3 |
| 20260503021804 | 64 | 82 | 8.0 | 12.0 | 0.00 | 0.00 | 0.00 | 72 | 1034.4 |
| 20260503021305 | 64 | 86 | 7.0 | 14.0 | 0.00 | 0.00 | 0.00 | 72 | 1034.4 |
| 20260503015804 | 64 | 60 | 7.0 | 12.0 | 0.00 | 0.00 | 0.00 | 73 | 1034.4 |
| 20260503014805 | 64 | 54 | 9.0 | 13.0 | 0.00 | 0.00 | 0.00 | 71 | 1034.5 |
| 20260503014305 | 64 | 54 | 9.0 | 13.0 | 0.00 | 0.00 | 0.00 | 71 | 1034.6 |
| 20260503011804 | 64 | 61 | 7.0 | 10.0 | 0.00 | 0.00 | 0.00 | 71 | 1034.8 |
| 20260503010804 | 64 | 63 | 7.0 | 12.0 | 0.00 | 0.00 | 0.00 | 70 | 1034.9 |
| 20260503010305 | 65 | 61 | 7.0 | 12.0 | 0.00 | 0.00 | 0.00 | 71 | 1035.0 |
| 20260503005804 | 64 | 59 | 5.0 | 12.0 | 0.00 | 0.00 | 0.00 | 71 | 1035.1 |
| 20260503005305 | 64 | 71 | 7.0 | 12.0 | 0.00 | 0.00 | 0.00 | 72 | 1035.2 |
| 20260503004304 | 65 | 72 | 8.0 | 12.0 | 0.00 | 0.00 | 0.00 | 71 | 1035.3 |
| 20260503003805 | 65 | 76 | 7.0 | 12.0 | 0.00 | 0.00 | 0.00 | 71 | 1035.3 |
| 20260503002805 | 65 | 81 | 5.0 | 8.0 | 0.00 | 0.00 | 0.00 | 73 | 1035.4 |
| 20260503001805 | 65 | 87 | 5.0 | 10.0 | 0.00 | 0.00 | 0.00 | 73 | 1035.5 |
| 20260503001305 | 66 | 92 | 8.0 | 12.0 | 0.00 | 0.00 | 0.00 | 72 | 1035.6 |
| 20260503000307 | 64 | 115 | 2.0 | 6.0 | 0.00 | 0.00 | 0.00 | 78 | 1035.7 |
| 20260502235305 | 64 | 88 | 3.0 | 9.0 | 0.00 | 0.00 | 0.00 | 76 | 1035.9 |
| 20260502233805 | 64 | 133 | 3.0 | 7.0 | 0.00 | 0.00 | 0.00 | 77 | 1036.1 |
| 20260502233305 | 64 | 112 | 4.0 | 8.0 | 0.00 | 0.00 | 0.00 | 77 | 1036.2 |
| 20260502232805 | 63 | 140 | 1.0 | 8.0 | 0.00 | 0.00 | 0.00 | 76 | 1036.3 |
| 20260502231804 | 63 | 108 | 9.0 | 10.0 | 0.00 | 0.00 | 0.00 | 77 | 1036.4 |
| 20260502231306 | 64 | 151 | 5.0 | 9.0 | 0.00 | 0.00 | 0.00 | 74 | 1036.4 |
| 20260502230804 | 64 | 136 | 5.0 | 10.0 | 0.00 | 0.00 | 0.00 | 75 | 1036.4 |
| 20260502230305 | 64 | 146 | 5.0 | 7.0 | 0.00 | 0.00 | 0.00 | 77 | 1036.4 |
| 20260502224305 | 65 | 116 | 6.0 | 8.0 | 0.00 | 0.00 | 0.00 | 76 | 1036.5 |
| 20260502223805 | 64 | 127 | 6.0 | 8.0 | 0.00 | 0.00 | 0.00 | 76 | 1036.6 |
| 20260502222305 | 65 | 137 | 4.0 | 7.0 | 0.00 | 0.00 | 0.00 | 75 | 1036.6 |
| 20260502221805 | 64 | 127 | 5.0 | 9.0 | 0.00 | 0.00 | 0.00 | 79 | 1036.6 |
| 20260502221305 | 63 | 149 | 5.0 | 8.0 | 0.00 | 0.00 | 0.00 | 78 | 1036.6 |
| 20260502220805 | 62 | 163 | 6.0 | 8.0 | 0.00 | 0.00 | 0.00 | 79 | 1036.6 |
| 20260502220304 | 62 | 151 | 3.0 | 7.0 | 0.00 | 0.00 | 0.00 | 78 | 1036.6 |
| 20260502215804 | 63 | 141 | 3.0 | 6.0 | 0.00 | 0.00 | 0.00 | 78 | 1036.6 |
| 20260502215305 | 63 | 144 | 5.0 | 8.0 | 0.00 | 0.00 | 0.00 | 80 | 1036.7 |
| 20260502214304 | 63 | 178 | 4.0 | 6.0 | 0.00 | 0.00 | 0.00 | 81 | 1036.6 |
| 20260502213804 | 61 | 177 | 3.0 | 6.0 | 0.00 | 0.00 | 0.00 | 84 | 1036.6 |
| 20260502213304 | 60 | 177 | 4.0 | 7.0 | 0.00 | 0.00 | 0.00 | 83 | 1036.6 |
| 20260502212804 | 59 | 177 | 3.0 | 6.0 | 0.00 | 0.00 | 0.00 | 85 | 1036.6 |
| 20260502212305 | 59 | 177 | 4.0 | 6.0 | 0.00 | 0.00 | 0.00 | 86 | 1036.7 |
| 20260502211305 | 58 | 178 | 4.0 | 6.0 | 0.00 | 0.00 | 0.00 | 87 | 1036.6 |
| 20260502210304 | 57 | 176 | 5.0 | 7.0 | 0.00 | 0.00 | 0.00 | 88 | 1036.7 |
| 20260502205305 | 56 | 168 | 5.0 | 7.0 | 0.00 | 0.00 | 0.00 | 89 | 1036.7 |